EW4729 Weather Reports


Display with metric or nautical units.
time (UTC)temp
F
wind
direction
speed
MPH
gust
MPH
rain 1hr
in
rain 24hr
in
rain mn
in
humidity
%
barometer
mb
20260905012554 84 0 0.0 0.0 0.00 0.01 0.01 78 1013.1
20260905012055 84 0 0.0 0.0 0.00 0.01 0.01 77 1013.2
20260905011613 84 0 0.0 0.0 0.00 0.01 0.01 77 1013.0
20260905011054 85 0 0.0 0.0 0.00 0.01 0.01 76 1013.0
20260905010554 85 0 0.0 0.0 0.00 0.01 0.01 76 1013.0
20260905010106 85 0 0.0 0.0 0.00 0.01 0.01 75 1013.0
20260905005551 86 0 0.0 0.0 0.00 0.01 0.01 75 1012.9
20260905005053 86 0 0.0 0.0 0.00 0.01 0.01 74 1012.8
20260905004600 86 0 0.0 0.0 0.00 0.01 0.01 74 1012.7
20260905004054 87 0 0.0 2.0 0.00 0.01 0.01 74 1012.6
20260905003554 87 0 0.0 4.0 0.00 0.01 0.01 74 1012.6
20260905003101 87 0 1.0 4.0 0.00 0.01 0.01 73 1012.5
20260905002554 87 0 0.0 5.0 0.00 0.01 0.01 73 1012.5
20260905002053 87 0 0.0 5.0 0.00 0.01 0.01 73 1012.6
20260905001602 87 165 2.0 5.0 0.00 0.01 0.01 73 1012.5
20260905001053 87 156 2.0 6.0 0.00 0.01 0.01 73 1012.5
20260905000556 87 129 2.0 6.0 0.00 0.01 0.01 73 1012.6
20260905000059 87 125 1.0 5.0 0.00 0.01 0.01 74 1012.5
20260904235554 87 0 2.0 5.0 0.00 0.01 0.01 74 1012.6
20260904235055 86 126 1.0 7.0 0.00 0.01 0.01 75 1012.5
20260904234558 86 113 2.0 7.0 0.00 0.01 0.01 75 1012.5
20260904234054 86 0 1.0 4.0 0.00 0.01 0.01 76 1012.5
20260904233552 86 126 1.0 8.0 0.00 0.01 0.01 76 1012.5
20260904233104 85 159 2.0 8.0 0.00 0.01 0.01 76 1012.6
20260904232616 85 154 1.0 8.0 0.00 0.01 0.01 76 1012.6
20260904232053 86 134 3.0 8.0 0.00 0.01 0.01 76 1012.7
20260904231602 86 109 3.0 8.0 0.00 0.01 0.01 76 1012.8
20260904231053 86 153 2.0 8.0 0.00 0.01 0.01 76 1012.7
20260904230555 86 180 1.0 9.0 0.00 0.01 0.01 76 1012.6
20260904230111 86 128 3.0 10.0 0.00 0.01 0.01 76 1012.6
20260904225553 86 163 2.0 11.0 0.00 0.01 0.01 77 1012.5
20260904225052 87 155 2.0 11.0 0.00 0.01 0.01 76 1012.5
20260904224615 87 165 5.0 12.0 0.00 0.01 0.01 75 1012.6
20260904224057 87 140 6.0 12.0 0.00 0.01 0.01 75 1012.7
20260904223557 88 156 5.0 10.0 0.00 0.01 0.01 75 1012.5
20260904223110 88 86 3.0 9.0 0.00 0.01 0.01 74 1012.4
20260904222552 88 138 2.0 9.0 0.00 0.01 0.01 77 1012.6
20260904222052 87 124 2.0 9.0 0.00 0.01 0.01 76 1012.7
20260904221628 87 134 3.0 8.0 0.00 0.01 0.01 77 1012.7
20260904221053 86 103 2.0 6.0 0.00 0.01 0.01 80 1012.9
20260904220552 86 119 2.0 8.0 0.00 0.01 0.01 81 1013.0
20260904215556 85 92 2.0 8.0 0.00 0.01 0.01 84 1013.0
20260904215056 85 96 2.0 7.0 0.01 0.01 0.01 85 1013.0
20260904214604 84 76 2.0 7.0 0.01 0.01 0.01 85 1013.1
20260904214052 84 109 2.0 5.0 0.01 0.01 0.01 86 1013.2
20260904213552 83 104 2.0 4.0 0.01 0.01 0.01 86 1013.2
20260904213104 83 0 1.0 4.0 0.01 0.01 0.01 86 1013.3
20260904212554 83 86 1.0 4.0 0.01 0.01 0.01 86 1013.4
20260904212056 83 88 1.0 4.0 0.01 0.01 0.01 86 1013.4
20260904211606 83 0 1.0 4.0 0.01 0.01 0.01 85 1013.3
20260904211053 83 101 1.0 4.0 0.01 0.01 0.01 84 1013.4
20260904210553 83 128 0.0 2.0 0.01 0.01 0.01 83 1013.4
20260904210120 83 128 0.0 0.0 0.01 0.01 0.01 83 1013.4
20260904205553 83 0 0.0 0.0 0.01 0.01 0.01 82 1013.5
20260904205052 83 0 0.0 3.0 0.00 0.00 0.00 80 1013.5
20260904204604 83 0 0.0 3.0 0.00 0.00 0.00 79 1013.5
20260904204056 83 128 1.0 5.0 0.00 0.00 0.00 78 1013.6
20260904203554 83 126 1.0 5.0 0.00 0.00 0.00 77 1013.7
20260904203058 83 158 1.0 6.0 0.00 0.00 0.00 76 1013.6
20260904202553 83 157 3.0 7.0 0.00 0.00 0.00 75 1013.7
20260904202052 83 150 2.0 9.0 0.00 0.00 0.00 74 1013.6
20260904201616 83 176 4.0 9.0 0.00 0.00 0.00 74 1013.6
20260904201052 83 175 3.0 9.0 0.00 0.00 0.00 73 1013.7
20260904200552 84 176 3.0 8.0 0.00 0.00 0.00 73 1013.7
20260904200119 84 173 3.0 13.0 0.00 0.00 0.00 73 1013.8
20260904195554 85 151 4.0 13.0 0.00 0.00 0.00 72 1014.0
20260904195053 85 156 6.0 13.0 0.00 0.00 0.00 71 1014.1
20260904194604 86 148 5.0 12.0 0.00 0.00 0.00 70 1014.2
20260904194052 87 129 3.0 14.0 0.00 0.00 0.00 70 1014.2
20260904193553 87 182 6.0 14.0 0.00 0.00 0.00 68 1014.5
20260904193100 88 142 8.0 14.0 0.00 0.00 0.00 66 1014.7
20260904192552 89 186 0.0 8.0 0.00 0.00 0.00 66 1014.3
20260904192052 89 90 2.0 8.0 0.00 0.00 0.00 67 1014.2
20260904191602 88 101 1.0 6.0 0.00 0.00 0.00 68 1014.2
20260904191052 88 88 1.0 5.0 0.00 0.00 0.00 70 1014.4
20260904190553 88 100 1.0 4.0 0.00 0.00 0.00 71 1014.4
20260904185555 88 0 2.0 4.0 0.00 0.00 0.00 73 1014.2
20260904185055 88 48 1.0 5.0 0.00 0.00 0.00 73 1014.2
20260904184605 89 27 1.0 5.0 0.00 0.00 0.00 72 1014.3
20260904184053 89 303 1.0 4.0 0.00 0.00 0.00 72 1014.5
20260904183553 88 30 0.0 3.0 0.00 0.00 0.00 72 1014.4
20260904183058 88 0 0.0 3.0 0.00 0.00 0.00 71 1014.6
20260904182552 88 268 0.0 6.0 0.00 0.00 0.00 71 1014.8
20260904182053 88 269 2.0 8.0 0.00 0.00 0.00 70 1014.7
20260904181604 88 269 3.0 8.0 0.00 0.00 0.00 69 1014.7
20260904181054 88 317 1.0 9.0 0.00 0.00 0.00 71 1014.7
20260904180552 88 128 1.0 9.0 0.00 0.00 0.00 71 1014.7
20260904180100 89 139 2.0 8.0 0.00 0.00 0.00 71 1014.8
20260904175552 89 96 3.0 8.0 0.00 0.00 0.00 71 1014.8
20260904175052 89 167 3.0 7.0 0.00 0.00 0.00 71 1014.9
20260904174602 89 32 2.0 8.0 0.00 0.00 0.00 69 1015.0
20260904174052 90 104 2.0 8.0 0.00 0.00 0.00 67 1014.9
20260904173552 91 19 2.0 8.0 0.00 0.00 0.00 65 1014.9
20260904173104 91 0 1.0 6.0 0.00 0.00 0.00 64 1014.9
20260904172552 92 111 2.0 8.0 0.00 0.00 0.00 64 1015.1
20260904172052 92 0 2.0 8.0 0.00 0.00 0.00 63 1014.9
20260904171623 93 145 2.0 7.0 0.00 0.00 0.00 62 1015.1
20260904171052 94 180 3.0 7.0 0.00 0.00 0.00 62 1015.1
20260904170555 95 187 1.0 7.0 0.00 0.00 0.00 61 1015.2
20260904170059 95 212 2.0 11.0 0.00 0.00 0.00 60 1015.1
20260904165553 96 204 5.0 11.0 0.00 0.00 0.00 60 1015.2
20260904165053 95 211 5.0 14.0 0.00 0.00 0.00 61 1015.1
20260904164605 95 220 5.0 14.0 0.00 0.00 0.00 59 1015.0
20260904164052 95 143 4.0 10.0 0.00 0.00 0.00 61 1015.0
20260904163552 94 157 6.0 10.0 0.00 0.00 0.00 61 1015.1
20260904163103 93 153 5.0 9.0 0.00 0.00 0.00 62 1015.2
20260904162552 93 0 2.0 7.0 0.00 0.00 0.00 66 1015.2
20260904162053 92 279 4.0 10.0 0.00 0.00 0.00 67 1015.2
20260904161611 92 237 3.0 10.0 0.00 0.00 0.00 66 1015.0
20260904161052 92 202 6.0 10.0 0.00 0.00 0.00 64 1015.0
20260904160553 92 184 2.0 9.0 0.00 0.00 0.00 67 1015.0
20260904160104 92 238 3.0 9.0 0.00 0.00 0.00 68 1015.0
20260904155555 92 252 3.0 10.0 0.00 0.00 0.00 67 1015.0
20260904155055 92 251 2.0 10.0 0.00 0.00 0.00 67 1015.0
20260904154602 92 244 5.0 10.0 0.00 0.00 0.00 67 1015.0
20260904154055 91 248 4.0 9.0 0.00 0.00 0.00 69 1015.0
20260904153552 90 248 4.0 11.0 0.00 0.00 0.00 69 1014.9
20260904153119 89 181 5.0 12.0 0.00 0.00 0.00 70 1014.9
20260904152551 89 232 6.0 12.0 0.00 0.00 0.00 71 1015.0
20260904152052 88 213 5.0 10.0 0.00 0.00 0.00 72 1015.0
20260904151605 88 205 5.0 10.0 0.00 0.00 0.00 72 1015.0
20260904151053 88 223 5.0 10.0 0.00 0.00 0.00 70 1015.1
20260904150552 88 201 5.0 10.0 0.00 0.00 0.00 72 1015.0
20260904150103 89 207 3.0 9.0 0.00 0.00 0.00 72 1015.0
20260904145553 89 175 5.0 10.0 0.00 0.00 0.00 73 1015.0
20260904145053 89 211 6.0 10.0 0.00 0.00 0.00 73 1014.9
20260904144614 88 209 6.0 10.0 0.00 0.00 0.00 75 1015.0
20260904144052 87 146 1.0 8.0 0.00 0.00 0.00 80 1014.9
20260904143552 86 167 2.0 8.0 0.00 0.00 0.00 82 1014.7
20260904143121 85 0 1.0 5.0 0.00 0.00 0.00 84 1014.7
20260904142552 85 140 1.0 7.0 0.00 0.00 0.00 86 1014.7
20260904142052 84 219 3.0 7.0 0.00 0.00 0.00 87 1014.7
20260904141559 84 197 5.0 9.0 0.00 0.00 0.00 88 1014.7
20260904141051 83 226 5.0 9.0 0.00 0.00 0.00 89 1014.8
20260904140556 83 215 5.0 9.0 0.00 0.00 0.00 90 1014.7
20260904140058 82 190 4.0 6.0 0.00 0.00 0.00 91 1014.7
20260904135552 82 209 3.0 6.0 0.00 0.00 0.00 91 1014.6
20260904135053 81 193 3.0 6.0 0.00 0.00 0.00 92 1014.6
20260904134606 81 190 2.0 4.0 0.00 0.00 0.00 92 1014.6
20260904134052 81 188 0.0 5.0 0.00 0.00 0.00 92 1014.5
20260904133552 81 188 2.0 6.0 0.00 0.00 0.00 93 1014.5
20260904133111 81 193 3.0 6.0 0.00 0.00 0.00 93 1014.4
20260904132552 80 161 3.0 6.0 0.00 0.00 0.00 93 1014.4
20260904132052 80 0 0.0 0.0 0.00 0.00 0.00 93 1014.4
20260904131603 80 0 0.0 0.0 0.00 0.00 0.00 93 1014.2
20260904131056 79 0 0.0 0.0 0.00 0.00 0.00 93 1014.3
20260904130551 79 0 0.0 0.0 0.00 0.00 0.00 93 1014.2
20260904130108 79 0 0.0 0.0 0.00 0.00 0.00 92 1014.3
20260904125552 79 0 0.0 0.0 0.00 0.00 0.00 92 1014.2
20260904125056 79 0 0.0 0.0 0.00 0.00 0.00 92 1014.1
20260904124559 78 0 0.0 0.0 0.00 0.00 0.00 92 1014.2
20260904124052 79 0 0.0 0.0 0.00 0.00 0.00 92 1014.1
20260904123553 79 0 0.0 0.0 0.00 0.00 0.00 92 1014.1
20260904123100 78 0 0.0 0.0 0.00 0.00 0.00 92 1014.1
20260904122552 78 0 0.0 0.0 0.00 0.00 0.00 92 1014.0
20260904122052 79 0 0.0 0.0 0.00 0.00 0.00 92 1014.0
20260904121556 79 0 0.0 0.0 0.00 0.00 0.00 92 1013.9
20260904121051 79 0 0.0 0.0 0.00 0.00 0.00 92 1013.8
20260904120552 79 0 0.0 0.0 0.00 0.00 0.00 92 1013.9
20260904120109 79 0 0.0 0.0 0.00 0.00 0.00 92 1013.8
20260904115552 78 0 0.0 0.0 0.00 0.00 0.00 91 1013.6
20260904115052 79 0 0.0 0.0 0.00 0.00 0.00 91 1013.6
20260904114606 79 0 0.0 0.0 0.00 0.00 0.00 91 1013.5
20260904114053 79 0 0.0 0.0 0.00 0.00 0.00 91 1013.6
20260904113551 79 0 0.0 0.0 0.00 0.00 0.00 91 1013.7
20260904113058 79 0 0.0 0.0 0.00 0.00 0.00 91 1013.8
20260904112552 79 0 0.0 0.0 0.00 0.00 0.00 91 1013.7
20260904112051 79 0 0.0 0.0 0.00 0.00 0.00 91 1013.7
20260904111557 79 0 0.0 0.0 0.00 0.00 0.00 91 1013.7
20260904111051 79 0 0.0 0.0 0.00 0.00 0.00 91 1013.7
20260904110552 79 0 0.0 0.0 0.00 0.00 0.00 91 1013.7
20260904110101 79 0 0.0 0.0 0.00 0.00 0.00 91 1013.7
20260904105552 79 0 0.0 0.0 0.00 0.00 0.00 91 1013.7
20260904105052 79 0 0.0 0.0 0.00 0.00 0.00 90 1013.6
20260904104601 79 0 0.0 0.0 0.00 0.00 0.00 90 1013.6
20260904104052 79 0 0.0 0.0 0.00 0.00 0.00 90 1013.6
20260904103551 79 0 0.0 0.0 0.00 0.00 0.00 90 1013.6
20260904103057 79 0 0.0 0.0 0.00 0.00 0.00 90 1013.6
20260904102552 79 0 0.0 0.0 0.00 0.00 0.00 90 1013.6
20260904102052 79 0 0.0 0.0 0.00 0.00 0.00 90 1013.5
20260904101606 79 0 0.0 0.0 0.00 0.00 0.00 90 1013.5
20260904101054 79 0 0.0 0.0 0.00 0.00 0.00 90 1013.4
20260904100552 79 0 0.0 0.0 0.00 0.00 0.00 90 1013.3
20260904100059 79 0 0.0 0.0 0.00 0.00 0.00 90 1013.3
20260904095553 79 0 0.0 0.0 0.00 0.00 0.00 90 1013.2
20260904095053 79 0 0.0 0.0 0.00 0.00 0.00 90 1013.2
20260904094559 79 0 0.0 0.0 0.00 0.00 0.00 90 1013.2
20260904094052 79 0 0.0 0.0 0.00 0.00 0.00 90 1013.3
20260904093552 79 0 0.0 0.0 0.00 0.00 0.00 90 1013.3
20260904093100 79 0 0.0 0.0 0.00 0.00 0.00 90 1013.3
20260904092551 79 0 0.0 0.0 0.00 0.00 0.00 90 1013.1
20260904092052 79 0 0.0 0.0 0.00 0.00 0.00 90 1013.2
20260904091601 79 0 0.0 0.0 0.00 0.00 0.00 90 1013.2
20260904091051 79 0 0.0 0.0 0.00 0.00 0.00 90 1013.2
20260904090552 79 0 0.0 0.0 0.00 0.00 0.00 90 1013.2
20260904090100 79 0 0.0 0.0 0.00 0.00 0.00 90 1013.2
20260904085552 79 0 0.0 0.0 0.00 0.00 0.00 90 1013.2
20260904085054 79 0 0.0 0.0 0.00 0.00 0.00 90 1013.2
20260904084601 80 0 0.0 0.0 0.00 0.00 0.00 89 1013.3
20260904084055 80 0 0.0 0.0 0.00 0.00 0.00 89 1013.2
20260904083555 80 0 0.0 0.0 0.00 0.00 0.00 89 1013.2
20260904083105 80 0 0.0 0.0 0.00 0.00 0.00 89 1013.2
20260904082554 80 0 0.0 0.0 0.00 0.00 0.00 89 1013.2
20260904082054 80 0 0.0 0.0 0.00 0.00 0.00 89 1013.3
20260904081600 80 0 0.0 0.0 0.00 0.00 0.00 89 1013.3
20260904081054 80 0 0.0 0.0 0.00 0.00 0.00 89 1013.3
20260904080557 80 0 0.0 0.0 0.00 0.00 0.00 89 1013.3
20260904080121 80 0 0.0 0.0 0.00 0.00 0.00 89 1013.2
20260904075557 80 0 0.0 0.0 0.00 0.00 0.00 89 1013.2
20260904075053 80 0 0.0 0.0 0.00 0.00 0.00 89 1013.2
20260904074556 80 0 0.0 0.0 0.00 0.00 0.00 89 1013.2
20260904074057 80 0 0.0 0.0 0.00 0.00 0.00 89 1013.3
20260904073554 80 0 0.0 0.0 0.00 0.00 0.00 89 1013.3
20260904073112 80 0 0.0 0.0 0.00 0.00 0.00 89 1013.3
20260904072557 80 0 0.0 0.0 0.00 0.00 0.00 89 1013.4
20260904072057 80 0 0.0 0.0 0.00 0.00 0.00 89 1013.4
20260904071603 80 0 0.0 0.0 0.00 0.00 0.00 89 1013.4
20260904071054 80 0 0.0 0.0 0.00 0.00 0.00 89 1013.5
20260904070554 80 0 0.0 0.0 0.00 0.00 0.00 89 1013.5
20260904065553 80 0 0.0 0.0 0.00 0.00 0.00 89 1013.5
20260904065051 80 0 0.0 0.0 0.00 0.00 0.00 89 1013.6
20260904064557 80 0 0.0 0.0 0.00 0.00 0.00 89 1013.5
20260904064051 80 0 0.0 0.0 0.00 0.00 0.00 89 1013.5
20260904063553 80 0 0.0 5.0 0.00 0.00 0.00 89 1013.6
20260904063116 80 0 0.0 5.0 0.00 0.00 0.00 89 1013.6
20260904062555 80 162 1.0 5.0 0.00 0.00 0.00 88 1013.5
20260904062054 80 157 0.0 3.0 0.00 0.00 0.00 88 1013.5
20260904061557 80 157 0.0 3.0 0.00 0.00 0.00 88 1013.5
20260904061056 80 0 0.0 3.0 0.00 0.00 0.00 88 1013.4
20260904060555 80 155 0.0 5.0 0.00 0.00 0.00 88 1013.5
20260904060056 80 0 1.0 5.0 0.00 0.00 0.00 88 1013.4
20260904055551 80 151 0.0 3.0 0.00 0.00 0.00 88 1013.5
20260904055054 80 150 1.0 5.0 0.00 0.00 0.00 88 1013.6
20260904054604 80 159 1.0 5.0 0.00 0.00 0.00 88 1013.6
20260904054051 80 157 0.0 0.0 0.00 0.00 0.00 88 1013.5
20260904053551 80 0 0.0 0.0 0.00 0.00 0.00 88 1013.4
20260904053130 81 0 0.0 0.0 0.00 0.00 0.00 87 1013.6
20260904052555 81 0 0.0 0.0 0.00 0.00 0.00 87 1013.5
20260904052055 81 0 0.0 0.0 0.00 0.00 0.00 87 1013.4
20260904051600 81 0 0.0 6.0 0.00 0.00 0.00 87 1013.4
20260904051054 81 0 0.0 6.0 0.00 0.00 0.00 87 1013.4
20260904050556 81 0 1.0 6.0 0.00 0.00 0.00 87 1013.4
20260904050104 81 148 0.0 5.0 0.00 0.00 0.00 87 1013.4
20260904045551 81 148 1.0 5.0 0.00 0.01 0.00 87 1013.4
20260904045051 81 0 0.0 0.0 0.00 0.01 0.00 87 1013.5
20260904044614 81 0 0.0 2.0 0.00 0.01 0.00 87 1013.5
20260904044051 81 0 0.0 2.0 0.00 0.01 0.00 87 1013.4
20260904043554 81 0 0.0 3.0 0.00 0.01 0.00 87 1013.5
20260904043104 81 0 0.0 3.0 0.00 0.01 0.00 87 1013.5
20260904042553 81 150 0.0 3.0 0.00 0.01 0.00 87 1013.5
20260904042052 81 0 0.0 3.0 0.00 0.01 0.00 87 1013.5
20260904041603 81 0 0.0 0.0 0.00 0.01 0.00 87 1013.5
20260904041053 81 0 0.0 2.0 0.00 0.01 0.00 86 1013.5
20260904040554 81 0 0.0 4.0 0.00 0.01 0.00 86 1013.5
20260904040059 81 145 0.0 4.0 0.00 0.01 0.00 86 1013.6
20260904035554 81 141 0.0 6.0 0.00 0.02 0.00 86 1013.6
20260904035054 81 0 0.0 6.0 0.00 0.02 0.00 86 1013.6
20260904034602 81 148 0.0 6.0 0.00 0.02 0.00 86 1013.6
20260904034055 81 147 2.0 6.0 0.00 0.02 0.00 87 1013.5
20260904033557 81 142 0.0 5.0 0.00 0.02 0.00 87 1013.4
20260904033105 81 142 1.0 5.0 0.00 0.02 0.00 87 1013.5
20260904032556 81 89 0.0 7.0 0.00 0.02 0.00 87 1013.4
20260904032059 81 142 2.0 7.0 0.00 0.02 0.00 87 1013.3
20260904031603 81 185 1.0 7.0 0.00 0.02 0.00 87 1013.4
20260904031051 81 155 1.0 6.0 0.00 0.02 0.00 87 1013.3
20260904030554 81 144 1.0 8.0 0.00 0.02 0.00 87 1013.4
20260904030103 81 162 1.0 8.0 0.00 0.02 0.00 87 1013.3
20260904025551 81 178 1.0 8.0 0.00 0.02 0.00 87 1013.3
20260904025055 81 126 1.0 8.0 0.00 0.02 0.00 87 1013.2
20260904024601 81 166 2.0 8.0 0.00 0.02 0.00 87 1013.1
20260904024054 81 0 1.0 8.0 0.00 0.02 0.00 86 1013.1
20260904023554 81 156 2.0 8.0 0.00 0.02 0.00 86 1013.2
20260904023055 81 120 0.0 6.0 0.00 0.02 0.00 86 1013.0
20260904022554 81 156 1.0 6.0 0.00 0.02 0.00 86 1013.0
20260904022055 81 172 0.0 9.0 0.00 0.02 0.00 86 1013.0
20260904021616 81 0 1.0 9.0 0.00 0.02 0.00 86 1012.9
20260904021051 81 0 2.0 9.0 0.00 0.02 0.00 86 1012.9
20260904020551 81 107 2.0 7.0 0.00 0.02 0.00 86 1012.8
20260904015554 81 106 1.0 4.0 0.00 0.02 0.00 86 1012.8
20260904015055 81 134 0.0 11.0 0.00 0.02 0.00 86 1012.8
20260904014606 81 0 2.0 11.0 0.00 0.02 0.00 86 1012.7
20260904014055 81 163 3.0 11.0 0.00 0.02 0.00 86 1012.6
20260904013554 81 142 2.0 8.0 0.00 0.02 0.00 85 1012.5
20260904013125 81 151 2.0 8.0 0.00 0.02 0.00 85 1012.5